Year,Month,Day,Hour,Minute,Value (Times are PST for temperature in C)
2013,03,30,00,00,6.10
2013,03,30,00,01,6.10
2013,03,30,00,02,6.10
2013,03,30,00,03,6.00
2013,03,30,00,04,6.00
2013,03,30,00,05,6.00
2013,03,30,00,06,6.00
2013,03,30,00,07,6.00
2013,03,30,00,08,5.90
2013,03,30,00,09,5.90
2013,03,30,00,10,5.90
2013,03,30,00,11,5.90
2013,03,30,00,12,5.90
2013,03,30,00,13,5.80
2013,03,30,00,14,5.80
2013,03,30,00,15,5.80
2013,03,30,00,16,5.80
2013,03,30,00,17,5.80
2013,03,30,00,18,5.80
2013,03,30,00,19,5.70
2013,03,30,00,20,5.70
2013,03,30,00,21,5.70
2013,03,30,00,22,5.70
2013,03,30,00,23,5.70
2013,03,30,00,24,5.70
2013,03,30,00,25,5.60
2013,03,30,00,26,5.60
2013,03,30,00,27,5.60
2013,03,30,00,28,5.60
2013,03,30,00,29,5.60
2013,03,30,00,30,5.50
2013,03,30,00,31,5.50
2013,03,30,00,32,5.50
2013,03,30,00,33,5.40
2013,03,30,00,34,5.40
2013,03,30,00,35,5.40
2013,03,30,00,36,5.40
2013,03,30,00,37,5.40
2013,03,30,00,38,5.40
2013,03,30,00,39,5.40
2013,03,30,00,40,5.40
2013,03,30,00,41,5.40
2013,03,30,00,42,5.30
2013,03,30,00,43,5.30
2013,03,30,00,44,5.30
2013,03,30,00,45,5.30
2013,03,30,00,46,5.30
2013,03,30,00,47,5.30
2013,03,30,00,48,5.30
2013,03,30,00,49,5.30
2013,03,30,00,50,5.20
2013,03,30,00,51,5.20
2013,03,30,00,52,5.20
2013,03,30,00,53,5.20
2013,03,30,00,54,5.20
2013,03,30,00,55,5.10
2013,03,30,00,56,5.10
2013,03,30,00,57,5.10
2013,03,30,00,58,5.10
2013,03,30,00,59,5.00
2013,03,30,01,00,5.00
2013,03,30,01,01,5.00
2013,03,30,01,02,5.00
2013,03,30,01,03,5.00
2013,03,30,01,04,4.90
2013,03,30,01,05,4.90
2013,03,30,01,06,4.90
2013,03,30,01,07,4.90
2013,03,30,01,08,4.90
2013,03,30,01,09,4.90
2013,03,30,01,10,4.90
2013,03,30,01,11,4.90
2013,03,30,01,12,4.90
2013,03,30,01,13,4.90
2013,03,30,01,14,4.90
2013,03,30,01,15,4.90
2013,03,30,01,16,4.90
2013,03,30,01,17,4.80
2013,03,30,01,18,4.80
2013,03,30,01,19,4.80
2013,03,30,01,20,4.80
2013,03,30,01,21,4.80
2013,03,30,01,22,4.80
2013,03,30,01,23,4.80
2013,03,30,01,24,4.80
2013,03,30,01,25,4.80
2013,03,30,01,26,4.70
2013,03,30,01,27,4.70
2013,03,30,01,28,4.70
2013,03,30,01,29,4.70
2013,03,30,01,30,4.70
2013,03,30,01,31,4.60
2013,03,30,01,32,4.60
2013,03,30,01,33,4.60
2013,03,30,01,34,4.60
2013,03,30,01,35,4.60
2013,03,30,01,36,4.50
2013,03,30,01,37,4.50
2013,03,30,01,38,4.50
2013,03,30,01,39,4.40
2013,03,30,01,40,4.40
2013,03,30,01,41,4.40
2013,03,30,01,42,4.40
2013,03,30,01,43,4.40
2013,03,30,01,44,4.40
2013,03,30,01,45,4.40
2013,03,30,01,46,4.40
2013,03,30,01,47,4.40
2013,03,30,01,48,4.30
2013,03,30,01,49,4.30
2013,03,30,01,50,4.30
2013,03,30,01,51,4.30
2013,03,30,01,52,4.30
2013,03,30,01,53,4.30
2013,03,30,01,54,4.30
2013,03,30,01,55,4.30
2013,03,30,01,56,4.30
2013,03,30,01,57,4.20
2013,03,30,01,58,4.20
2013,03,30,01,59,4.20
2013,03,30,02,00,4.20
2013,03,30,02,01,4.20
2013,03,30,02,02,4.20
2013,03,30,02,03,4.20
2013,03,30,02,04,4.20
2013,03,30,02,05,4.10
2013,03,30,02,06,4.10
2013,03,30,02,07,4.10
2013,03,30,02,08,4.10
2013,03,30,02,09,4.10
2013,03,30,02,10,4.00
2013,03,30,02,11,4.00
2013,03,30,02,12,4.00
2013,03,30,02,13,4.00
2013,03,30,02,14,4.00
2013,03,30,02,15,4.00
2013,03,30,02,16,4.00
2013,03,30,02,17,3.90
2013,03,30,02,18,3.90
2013,03,30,02,19,3.90
2013,03,30,02,20,3.90
2013,03,30,02,21,3.90
2013,03,30,02,22,3.90
2013,03,30,02,23,3.90
2013,03,30,02,24,3.90
2013,03,30,02,25,3.90
2013,03,30,02,26,3.80
2013,03,30,02,27,3.80
2013,03,30,02,28,3.80
2013,03,30,02,29,3.80
2013,03,30,02,30,3.80
2013,03,30,02,31,3.80
2013,03,30,02,32,3.80
2013,03,30,02,33,3.80
2013,03,30,02,34,3.80
2013,03,30,02,35,3.80
2013,03,30,02,36,3.80
2013,03,30,02,37,3.80
2013,03,30,02,38,3.80
2013,03,30,02,39,3.80
2013,03,30,02,40,3.80
2013,03,30,02,41,3.80
2013,03,30,02,42,3.80
2013,03,30,02,43,3.70
2013,03,30,02,44,3.70
2013,03,30,02,45,3.70
2013,03,30,02,46,3.70
2013,03,30,02,47,3.70
2013,03,30,02,48,3.70
2013,03,30,02,49,3.70
2013,03,30,02,50,3.70
2013,03,30,02,51,3.70
2013,03,30,02,52,3.70
2013,03,30,02,53,3.70
2013,03,30,02,54,3.70
2013,03,30,02,55,3.70
2013,03,30,02,56,3.70
2013,03,30,02,57,3.70
2013,03,30,02,58,3.70
2013,03,30,02,59,3.60
2013,03,30,03,00,3.60
2013,03,30,03,01,3.60
2013,03,30,03,02,3.60
2013,03,30,03,03,3.60
2013,03,30,03,04,3.50
2013,03,30,03,05,3.50
2013,03,30,03,06,3.50
2013,03,30,03,07,3.50
2013,03,30,03,08,3.60
2013,03,30,03,09,3.60
2013,03,30,03,10,3.60
2013,03,30,03,11,3.60
2013,03,30,03,12,3.60
2013,03,30,03,13,3.60
2013,03,30,03,14,3.60
2013,03,30,03,15,3.50
2013,03,30,03,16,3.50
2013,03,30,03,17,3.50
2013,03,30,03,18,3.50
2013,03,30,03,19,3.50
2013,03,30,03,20,3.50
2013,03,30,03,21,3.50
2013,03,30,03,22,3.50
2013,03,30,03,23,3.50
2013,03,30,03,24,3.50
2013,03,30,03,25,3.50
2013,03,30,03,26,3.50
2013,03,30,03,27,3.50
2013,03,30,03,28,3.60
2013,03,30,03,29,3.60
2013,03,30,03,30,3.60
2013,03,30,03,31,3.60
2013,03,30,03,32,3.60
2013,03,30,03,33,3.60
2013,03,30,03,34,3.60
2013,03,30,03,35,3.60
2013,03,30,03,36,3.60
2013,03,30,03,37,3.60
2013,03,30,03,38,3.60
2013,03,30,03,39,3.50
2013,03,30,03,40,3.50
2013,03,30,03,41,3.50
2013,03,30,03,42,3.50
2013,03,30,03,43,3.50
2013,03,30,03,44,3.50
2013,03,30,03,45,3.50
2013,03,30,03,46,3.50
2013,03,30,03,47,3.50
2013,03,30,03,48,3.50
2013,03,30,03,49,3.50
2013,03,30,03,50,3.50
2013,03,30,03,51,3.50
2013,03,30,03,52,3.50
2013,03,30,03,53,3.50
2013,03,30,03,54,3.50
2013,03,30,03,55,3.50
2013,03,30,03,56,3.40
2013,03,30,03,57,3.40
2013,03,30,03,58,3.40
2013,03,30,03,59,3.40
2013,03,30,04,00,3.40
2013,03,30,04,01,3.40
2013,03,30,04,02,3.30
2013,03,30,04,03,3.30
2013,03,30,04,04,3.30
2013,03,30,04,05,3.30
2013,03,30,04,06,3.30
2013,03,30,04,07,3.30
2013,03,30,04,08,3.30
2013,03,30,04,09,3.30
2013,03,30,04,10,3.30
2013,03,30,04,11,3.30
2013,03,30,04,12,3.30
2013,03,30,04,13,3.30
2013,03,30,04,14,3.30
2013,03,30,04,15,3.30
2013,03,30,04,16,3.30
2013,03,30,04,17,3.30
2013,03,30,04,18,3.30
2013,03,30,04,19,3.30
2013,03,30,04,20,3.30
2013,03,30,04,21,3.30
2013,03,30,04,22,3.30
2013,03,30,04,23,3.30
2013,03,30,04,24,3.30
2013,03,30,04,25,3.40
2013,03,30,04,26,3.40
2013,03,30,04,27,3.40
2013,03,30,04,28,3.50
2013,03,30,04,29,3.50
2013,03,30,04,30,3.50
2013,03,30,04,31,3.50
2013,03,30,04,32,3.50
2013,03,30,04,33,3.50
2013,03,30,04,34,3.50
2013,03,30,04,35,3.50
2013,03,30,04,36,3.60
2013,03,30,04,37,3.60
2013,03,30,04,38,3.60
2013,03,30,04,39,3.60
2013,03,30,04,40,3.60
2013,03,30,04,41,3.60
2013,03,30,04,42,3.70
2013,03,30,04,43,3.70
2013,03,30,04,44,3.70
2013,03,30,04,45,3.70
2013,03,30,04,46,3.70
2013,03,30,04,47,3.60
2013,03,30,04,48,3.60
2013,03,30,04,49,3.50
2013,03,30,04,50,3.50
2013,03,30,04,51,3.50
2013,03,30,04,52,3.40
2013,03,30,04,53,3.40
2013,03,30,04,54,3.40
2013,03,30,04,55,3.40
2013,03,30,04,56,3.30
2013,03,30,04,57,3.30
2013,03,30,04,58,3.30
2013,03,30,04,59,3.30
2013,03,30,05,00,3.30
2013,03,30,05,01,3.20
2013,03,30,05,02,3.20
2013,03,30,05,03,3.20
2013,03,30,05,04,3.20
2013,03,30,05,05,3.20
2013,03,30,05,06,3.20
2013,03,30,05,07,3.20
2013,03,30,05,08,3.20
2013,03,30,05,09,3.20
2013,03,30,05,10,3.10
2013,03,30,05,11,3.10
2013,03,30,05,12,3.10
2013,03,30,05,13,3.00
2013,03,30,05,14,3.00
2013,03,30,05,15,3.00
2013,03,30,05,16,3.00
2013,03,30,05,17,3.00
2013,03,30,05,18,3.00
2013,03,30,05,19,2.90
2013,03,30,05,20,2.90
2013,03,30,05,21,2.90
2013,03,30,05,22,2.90
2013,03,30,05,23,2.90
2013,03,30,05,24,2.90
2013,03,30,05,25,2.90
2013,03,30,05,26,2.90
2013,03,30,05,27,2.90
2013,03,30,05,28,2.90
2013,03,30,05,29,2.90
2013,03,30,05,30,2.90
2013,03,30,05,31,2.90
2013,03,30,05,32,2.90
2013,03,30,05,33,2.90
2013,03,30,05,34,2.90
2013,03,30,05,35,2.90
2013,03,30,05,36,2.90
2013,03,30,05,37,2.90
2013,03,30,05,38,2.90
2013,03,30,05,39,3.00
2013,03,30,05,40,3.00
2013,03,30,05,41,3.10
2013,03,30,05,42,3.10
2013,03,30,05,43,3.10
2013,03,30,05,44,3.10
2013,03,30,05,45,3.20
2013,03,30,05,46,3.20
2013,03,30,05,47,3.20
2013,03,30,05,48,3.20
2013,03,30,05,49,3.20
2013,03,30,05,50,3.10
2013,03,30,05,51,3.10
2013,03,30,05,52,3.10
2013,03,30,05,53,3.10
2013,03,30,05,54,3.10
2013,03,30,05,55,3.10
2013,03,30,05,56,3.20
2013,03,30,05,57,3.20
2013,03,30,05,58,3.20
2013,03,30,05,59,3.30
2013,03,30,06,00,3.30
2013,03,30,06,01,3.30
2013,03,30,06,02,3.30
2013,03,30,06,03,3.30
2013,03,30,06,04,3.30
2013,03,30,06,05,3.30
2013,03,30,06,06,3.30
2013,03,30,06,07,3.30
2013,03,30,06,08,3.30
2013,03,30,06,09,3.30
2013,03,30,06,10,3.30
2013,03,30,06,11,3.30
2013,03,30,06,12,3.20
2013,03,30,06,13,3.20
2013,03,30,06,14,3.30
2013,03,30,06,15,3.40
2013,03,30,06,16,3.40
2013,03,30,06,17,3.50
2013,03,30,06,18,3.50
2013,03,30,06,19,3.50
2013,03,30,06,20,3.50
2013,03,30,06,21,3.50
2013,03,30,06,22,3.40
2013,03,30,06,23,3.40
2013,03,30,06,24,3.40
2013,03,30,06,25,3.40
2013,03,30,06,26,3.30
2013,03,30,06,27,3.30
2013,03,30,06,28,3.30
2013,03,30,06,29,3.30
2013,03,30,06,30,3.30
2013,03,30,06,31,3.30
2013,03,30,06,32,3.30
2013,03,30,06,33,3.30
2013,03,30,06,34,3.30
2013,03,30,06,35,3.30
2013,03,30,06,36,3.20
2013,03,30,06,37,3.20
2013,03,30,06,38,3.20
2013,03,30,06,39,3.20
2013,03,30,06,40,3.30
2013,03,30,06,41,3.30
2013,03,30,06,42,3.40
2013,03,30,06,43,3.40
2013,03,30,06,44,3.50
2013,03,30,06,45,3.50
2013,03,30,06,46,3.50
2013,03,30,06,47,3.60
2013,03,30,06,48,3.60
2013,03,30,06,49,3.60
2013,03,30,06,50,3.60
2013,03,30,06,51,3.60
2013,03,30,06,52,3.60
2013,03,30,06,53,3.60
2013,03,30,06,54,3.60
2013,03,30,06,55,3.50
2013,03,30,06,56,3.50
2013,03,30,06,57,3.50
2013,03,30,06,58,3.50
2013,03,30,06,59,3.40
2013,03,30,07,00,3.40
2013,03,30,07,01,3.40
2013,03,30,07,02,3.40
2013,03,30,07,03,3.40
2013,03,30,07,04,3.40
2013,03,30,07,05,3.30
2013,03,30,07,06,3.30
2013,03,30,07,07,3.30
2013,03,30,07,08,3.30
2013,03,30,07,09,3.30
2013,03,30,07,10,3.20
2013,03,30,07,11,3.20
2013,03,30,07,12,3.20
2013,03,30,07,13,3.20
2013,03,30,07,14,3.20
2013,03,30,07,15,3.20
2013,03,30,07,16,3.20
2013,03,30,07,17,3.10
2013,03,30,07,18,3.10
2013,03,30,07,19,3.10
2013,03,30,07,20,3.10
2013,03,30,07,21,3.10
2013,03,30,07,22,3.10
2013,03,30,07,23,3.10
2013,03,30,07,24,3.10
2013,03,30,07,25,3.10
2013,03,30,07,26,3.20
2013,03,30,07,27,3.20
2013,03,30,07,28,3.20
2013,03,30,07,29,3.20
2013,03,30,07,30,3.30
2013,03,30,07,31,3.40
2013,03,30,07,32,3.40
2013,03,30,07,33,3.40
2013,03,30,07,34,3.50
2013,03,30,07,35,3.50
2013,03,30,07,36,3.50
2013,03,30,07,37,3.50
2013,03,30,07,38,3.40
2013,03,30,07,39,3.40
2013,03,30,07,40,3.50
2013,03,30,07,41,3.50
2013,03,30,07,42,3.50
2013,03,30,07,43,3.50
2013,03,30,07,44,3.60
2013,03,30,07,45,3.60
2013,03,30,07,46,3.60
2013,03,30,07,47,3.60
2013,03,30,07,48,3.60
2013,03,30,07,49,3.60
2013,03,30,07,50,3.60
2013,03,30,07,51,3.60
2013,03,30,07,52,3.60
2013,03,30,07,53,3.60
2013,03,30,07,54,3.70
2013,03,30,07,55,3.70
2013,03,30,07,56,3.70
2013,03,30,07,57,3.70
2013,03,30,07,58,3.70
2013,03,30,07,59,3.80
2013,03,30,08,00,3.80
2013,03,30,08,01,3.80
2013,03,30,08,02,3.80
2013,03,30,08,03,3.80
2013,03,30,08,04,3.80
2013,03,30,08,05,3.80
2013,03,30,08,06,3.80
2013,03,30,08,07,3.80
2013,03,30,08,08,3.80
2013,03,30,08,09,3.80
2013,03,30,08,10,3.80
2013,03,30,08,11,3.80
2013,03,30,08,12,3.80
2013,03,30,08,13,3.80
2013,03,30,08,14,3.80
2013,03,30,08,15,3.80
2013,03,30,08,16,3.80
2013,03,30,08,17,3.80
2013,03,30,08,18,3.80
2013,03,30,08,19,3.80
2013,03,30,08,20,3.80
2013,03,30,08,21,3.80
2013,03,30,08,22,3.80
2013,03,30,08,23,3.80
2013,03,30,08,24,3.80
2013,03,30,08,25,3.80
2013,03,30,08,26,3.80
2013,03,30,08,27,3.70
2013,03,30,08,28,3.70
2013,03,30,08,29,3.70
2013,03,30,08,30,3.70
2013,03,30,08,31,3.70
2013,03,30,08,32,3.70
2013,03,30,08,33,3.70
2013,03,30,08,34,3.70
2013,03,30,08,35,3.70
2013,03,30,08,36,3.70
2013,03,30,08,37,3.60
2013,03,30,08,38,3.60
2013,03,30,08,39,3.70
2013,03,30,08,40,3.70
2013,03,30,08,41,3.60
2013,03,30,08,42,3.60
2013,03,30,08,43,3.60
2013,03,30,08,44,3.60
2013,03,30,08,45,3.60
2013,03,30,08,46,3.60
2013,03,30,08,47,3.50
2013,03,30,08,48,3.50
2013,03,30,08,49,3.50
2013,03,30,08,50,3.50
2013,03,30,08,51,3.50
2013,03,30,08,52,3.50
2013,03,30,08,53,3.50
2013,03,30,08,54,3.50
2013,03,30,08,55,3.50
2013,03,30,08,56,3.50
2013,03,30,08,57,3.50
2013,03,30,08,58,3.50
2013,03,30,08,59,3.50
2013,03,30,09,00,3.60
2013,03,30,09,01,3.60
2013,03,30,09,02,3.60
2013,03,30,09,03,3.60
2013,03,30,09,04,3.60
2013,03,30,09,05,3.60
2013,03,30,09,06,3.60
2013,03,30,09,07,3.60
2013,03,30,09,08,3.60
2013,03,30,09,09,3.60
2013,03,30,09,10,3.60
2013,03,30,09,11,3.60
2013,03,30,09,12,3.60
2013,03,30,09,13,3.70
2013,03,30,09,14,3.70
2013,03,30,09,15,3.70
2013,03,30,09,16,3.70
2013,03,30,09,17,3.70
2013,03,30,09,18,3.80
2013,03,30,09,19,3.80
2013,03,30,09,20,3.80
2013,03,30,09,21,3.80
2013,03,30,09,22,3.80
2013,03,30,09,23,3.80
2013,03,30,09,24,3.80
2013,03,30,09,25,3.80
2013,03,30,09,26,3.80
2013,03,30,09,27,3.80
2013,03,30,09,28,3.80
2013,03,30,09,29,3.80
2013,03,30,09,30,3.80
2013,03,30,09,31,3.90
2013,03,30,09,32,3.90
2013,03,30,09,33,3.90
2013,03,30,09,34,4.00
2013,03,30,09,35,4.00
2013,03,30,09,36,4.10
2013,03,30,09,37,4.10
2013,03,30,09,38,4.10
2013,03,30,09,39,4.20
2013,03,30,09,40,4.30
2013,03,30,09,41,4.30
2013,03,30,09,42,4.40
2013,03,30,09,43,4.40
2013,03,30,09,44,4.50
2013,03,30,09,45,4.60
2013,03,30,09,46,4.60
2013,03,30,09,47,4.70
2013,03,30,09,48,4.70
2013,03,30,09,49,4.70
2013,03,30,09,50,4.80
2013,03,30,09,51,4.80
2013,03,30,09,52,4.90
2013,03,30,09,53,4.90
2013,03,30,09,54,5.00
2013,03,30,09,55,5.00
2013,03,30,09,56,5.10
2013,03,30,09,57,5.10
2013,03,30,09,58,5.10
2013,03,30,09,59,5.20
2013,03,30,10,00,5.20
2013,03,30,10,01,5.20
2013,03,30,10,02,5.20
2013,03,30,10,03,5.20
2013,03,30,10,04,5.20
2013,03,30,10,05,5.20
2013,03,30,10,06,5.20
2013,03,30,10,07,5.20
2013,03,30,10,08,5.20
2013,03,30,10,09,5.20
2013,03,30,10,10,5.20
2013,03,30,10,11,5.20
2013,03,30,10,12,5.20
2013,03,30,10,13,5.20
2013,03,30,10,14,5.20
2013,03,30,10,15,5.20
2013,03,30,10,16,5.20
2013,03,30,10,17,5.30
2013,03,30,10,18,5.30
2013,03,30,10,19,5.30
2013,03,30,10,20,5.30
2013,03,30,10,21,5.30
2013,03,30,10,22,5.30
2013,03,30,10,23,5.30
2013,03,30,10,24,5.40
2013,03,30,10,25,5.50
2013,03,30,10,26,5.60
2013,03,30,10,27,5.70
2013,03,30,10,28,5.70
2013,03,30,10,29,5.80
2013,03,30,10,30,5.80
2013,03,30,10,31,5.90
2013,03,30,10,32,5.90
2013,03,30,10,33,6.00
2013,03,30,10,34,6.20
2013,03,30,10,35,6.30
2013,03,30,10,36,6.40
2013,03,30,10,37,6.50
2013,03,30,10,38,6.70
2013,03,30,10,39,6.70
2013,03,30,10,40,6.80
2013,03,30,10,41,6.90
2013,03,30,10,42,7.00
2013,03,30,10,43,7.00
2013,03,30,10,44,7.10
2013,03,30,10,45,7.20
2013,03,30,10,46,7.30
2013,03,30,10,47,7.40
2013,03,30,10,48,7.40
2013,03,30,10,49,7.50
2013,03,30,10,50,7.60
2013,03,30,10,51,7.70
2013,03,30,10,52,7.80
2013,03,30,10,53,7.80
2013,03,30,10,54,7.90
2013,03,30,10,55,7.90
2013,03,30,10,56,8.00
2013,03,30,10,57,8.10
2013,03,30,10,58,8.20
2013,03,30,10,59,8.30
2013,03,30,11,00,8.40
2013,03,30,11,01,8.50
2013,03,30,11,02,8.60
2013,03,30,11,03,8.60
2013,03,30,11,04,8.70
2013,03,30,11,05,8.80
2013,03,30,11,06,8.90
2013,03,30,11,07,8.90
2013,03,30,11,08,9.00
2013,03,30,11,09,9.00
2013,03,30,11,10,9.10
2013,03,30,11,11,9.20
2013,03,30,11,12,9.20
2013,03,30,11,13,9.30
2013,03,30,11,14,9.40
2013,03,30,11,15,9.40
2013,03,30,11,16,9.50
2013,03,30,11,17,9.60
2013,03,30,11,18,9.70
2013,03,30,11,19,9.80
2013,03,30,11,20,9.90
2013,03,30,11,21,10.00
2013,03,30,11,22,10.10
2013,03,30,11,23,10.20
2013,03,30,11,24,10.30
2013,03,30,11,25,10.40
2013,03,30,11,26,10.50
2013,03,30,11,27,10.50
2013,03,30,11,28,10.60
2013,03,30,11,29,10.70
2013,03,30,11,30,10.80
2013,03,30,11,31,10.80
2013,03,30,11,32,10.90
2013,03,30,11,33,11.00
2013,03,30,11,34,11.10
2013,03,30,11,35,11.10
2013,03,30,11,36,11.20
2013,03,30,11,37,11.40
2013,03,30,11,38,11.40
2013,03,30,11,39,11.60
2013,03,30,11,40,11.70
2013,03,30,11,41,11.80
2013,03,30,11,42,11.90
2013,03,30,11,43,12.10
2013,03,30,11,44,12.20
2013,03,30,11,45,12.30
2013,03,30,11,46,12.50
2013,03,30,11,47,12.60
2013,03,30,11,48,12.70
2013,03,30,11,49,12.80
2013,03,30,11,50,12.90
2013,03,30,11,51,13.00
2013,03,30,11,52,13.10
2013,03,30,11,53,13.10
2013,03,30,11,54,13.20
2013,03,30,11,55,13.30
2013,03,30,11,56,13.30
2013,03,30,11,57,13.40
2013,03,30,11,58,13.40
2013,03,30,11,59,13.50
2013,03,30,12,00,13.60
2013,03,30,12,01,13.60
2013,03,30,12,02,13.70
2013,03,30,12,03,13.80
2013,03,30,12,04,13.80
2013,03,30,12,05,13.90
2013,03,30,12,06,13.90
2013,03,30,12,07,13.90
2013,03,30,12,08,13.90
2013,03,30,12,09,14.00
2013,03,30,12,10,14.00
2013,03,30,12,11,14.10
2013,03,30,12,12,14.10
2013,03,30,12,13,14.20
2013,03,30,12,14,14.20
2013,03,30,12,15,14.30
2013,03,30,12,16,14.30
2013,03,30,12,17,14.30
2013,03,30,12,18,14.40
2013,03,30,12,19,14.40
2013,03,30,12,20,14.50
2013,03,30,12,21,14.60
2013,03,30,12,22,14.60
2013,03,30,12,23,14.70
2013,03,30,12,24,14.80
2013,03,30,12,25,14.90
2013,03,30,12,26,15.00
2013,03,30,12,27,15.10
2013,03,30,12,28,15.30
2013,03,30,12,29,15.50
2013,03,30,12,30,15.60
2013,03,30,12,31,15.60
2013,03,30,12,32,15.60
2013,03,30,12,33,15.60
2013,03,30,12,34,15.70
2013,03,30,12,35,15.70
2013,03,30,12,36,15.70
2013,03,30,12,37,15.70
2013,03,30,12,38,15.80
2013,03,30,12,39,15.80
2013,03,30,12,40,15.80
2013,03,30,12,41,15.80
2013,03,30,12,42,15.90
2013,03,30,12,43,15.90
2013,03,30,12,44,16.00
2013,03,30,12,45,16.10
2013,03,30,12,46,16.10
2013,03,30,12,47,16.10
2013,03,30,12,48,16.10
2013,03,30,12,49,16.10
2013,03,30,12,50,16.20
2013,03,30,12,51,16.30
2013,03,30,12,52,16.30
2013,03,30,12,53,16.40
2013,03,30,12,54,16.50
2013,03,30,12,55,16.60
2013,03,30,12,56,16.70
2013,03,30,12,57,16.80
2013,03,30,12,58,16.80
2013,03,30,12,59,16.90
2013,03,30,13,00,17.00
2013,03,30,13,01,17.10
2013,03,30,13,02,17.10
2013,03,30,13,03,17.10
2013,03,30,13,04,17.10
2013,03,30,13,05,17.20
2013,03,30,13,06,17.20
2013,03,30,13,07,17.20
2013,03,30,13,08,17.30
2013,03,30,13,09,17.30
2013,03,30,13,10,17.30
2013,03,30,13,11,17.30
2013,03,30,13,12,17.40
2013,03,30,13,13,17.40
2013,03,30,13,14,17.50
2013,03,30,13,15,17.50
2013,03,30,13,16,17.60
2013,03,30,13,17,17.60
2013,03,30,13,18,17.70
2013,03,30,13,19,17.70
2013,03,30,13,20,17.70
2013,03,30,13,21,17.70
2013,03,30,13,22,17.70
2013,03,30,13,23,17.70
2013,03,30,13,24,17.70
2013,03,30,13,25,17.70
2013,03,30,13,26,17.70
2013,03,30,13,27,17.70
2013,03,30,13,28,17.70
2013,03,30,13,29,17.70
2013,03,30,13,30,17.70
2013,03,30,13,31,17.60
2013,03,30,13,32,17.50
2013,03,30,13,33,17.50
2013,03,30,13,34,17.50
2013,03,30,13,35,17.60
2013,03,30,13,36,17.60
2013,03,30,13,37,17.60
2013,03,30,13,38,17.70
2013,03,30,13,39,17.80
2013,03,30,13,40,17.90
2013,03,30,13,41,18.00
2013,03,30,13,42,18.10
2013,03,30,13,43,18.20
2013,03,30,13,44,18.20
2013,03,30,13,45,18.20
2013,03,30,13,46,18.10
2013,03,30,13,47,18.10
2013,03,30,13,48,18.10
2013,03,30,13,49,18.10
2013,03,30,13,50,18.10
2013,03,30,13,51,18.10
2013,03,30,13,52,18.10
2013,03,30,13,53,18.20
2013,03,30,13,54,18.20
2013,03,30,13,55,18.20
2013,03,30,13,56,18.30
2013,03,30,13,57,18.30
2013,03,30,13,58,18.40
2013,03,30,13,59,18.50
2013,03,30,14,00,18.60
2013,03,30,14,01,18.70
2013,03,30,14,02,18.70
2013,03,30,14,03,18.80
2013,03,30,14,04,18.80
2013,03,30,14,05,18.90
2013,03,30,14,06,18.90
2013,03,30,14,07,19.00
2013,03,30,14,08,19.00
2013,03,30,14,09,19.00
2013,03,30,14,10,19.00
2013,03,30,14,11,18.90
2013,03,30,14,12,18.90
2013,03,30,14,13,18.80
2013,03,30,14,14,18.80
2013,03,30,14,15,18.80
2013,03,30,14,16,18.80
2013,03,30,14,17,18.80
2013,03,30,14,18,18.90
2013,03,30,14,19,18.90
2013,03,30,14,20,19.00
2013,03,30,14,21,19.00
2013,03,30,14,22,19.00
2013,03,30,14,23,19.00
2013,03,30,14,24,19.10
2013,03,30,14,25,19.10
2013,03,30,14,26,19.10
2013,03,30,14,27,19.10
2013,03,30,14,28,19.10
2013,03,30,14,29,19.10
2013,03,30,14,30,19.20
2013,03,30,14,31,19.20
2013,03,30,14,32,19.20
2013,03,30,14,33,19.20
2013,03,30,14,34,19.10
2013,03,30,14,35,19.10
2013,03,30,14,36,19.20
2013,03,30,14,37,19.10
2013,03,30,14,38,19.10
2013,03,30,14,39,19.10
2013,03,30,14,40,19.10
2013,03,30,14,41,19.10
2013,03,30,14,42,19.00
2013,03,30,14,43,19.00
2013,03,30,14,44,18.90
2013,03,30,14,45,18.90
2013,03,30,14,46,18.90
2013,03,30,14,47,18.90
2013,03,30,14,48,18.90
2013,03,30,14,49,18.90
2013,03,30,14,50,18.90
2013,03,30,14,51,18.90
2013,03,30,14,52,18.90
2013,03,30,14,53,18.80
2013,03,30,14,54,18.80
2013,03,30,14,55,18.80
2013,03,30,14,56,18.80
2013,03,30,14,57,18.80
2013,03,30,14,58,18.80
2013,03,30,14,59,18.90
2013,03,30,15,00,18.90
2013,03,30,15,01,18.80
2013,03,30,15,02,18.80
2013,03,30,15,03,18.70
2013,03,30,15,04,18.60
2013,03,30,15,05,18.50
2013,03,30,15,06,18.50
2013,03,30,15,07,18.50
2013,03,30,15,08,18.40
2013,03,30,15,09,18.40
2013,03,30,15,10,18.30
2013,03,30,15,11,18.30
2013,03,30,15,12,18.30
2013,03,30,15,13,18.30
2013,03,30,15,14,18.30
2013,03,30,15,15,18.30
2013,03,30,15,16,18.20
2013,03,30,15,17,18.20
2013,03,30,15,18,18.10
2013,03,30,15,19,18.00
2013,03,30,15,20,18.00
2013,03,30,15,21,17.90
2013,03,30,15,22,17.90
2013,03,30,15,23,17.90
2013,03,30,15,24,17.90
2013,03,30,15,25,17.90
2013,03,30,15,26,17.80
2013,03,30,15,27,17.80
2013,03,30,15,28,17.80
2013,03,30,15,29,17.80
2013,03,30,15,30,17.80
2013,03,30,15,31,17.80
2013,03,30,15,32,17.90
2013,03,30,15,33,17.90
2013,03,30,15,34,17.90
2013,03,30,15,35,18.00
2013,03,30,15,36,18.10
2013,03,30,15,37,18.10
2013,03,30,15,38,18.20
2013,03,30,15,39,18.30
2013,03,30,15,40,18.30
2013,03,30,15,41,18.30
2013,03,30,15,42,18.20
2013,03,30,15,43,18.20
2013,03,30,15,44,18.10
2013,03,30,15,45,18.10
2013,03,30,15,46,18.10
2013,03,30,15,47,18.00
2013,03,30,15,48,18.00
2013,03,30,15,49,18.00
2013,03,30,15,50,18.00
2013,03,30,15,51,18.00
2013,03,30,15,52,18.00
2013,03,30,15,53,18.00
2013,03,30,15,54,17.90
2013,03,30,15,55,17.80
2013,03,30,15,56,17.80
2013,03,30,15,57,17.80
2013,03,30,15,58,17.80
2013,03,30,15,59,17.80
2013,03,30,16,00,17.70
2013,03,30,16,01,17.70
2013,03,30,16,02,17.60
2013,03,30,16,03,17.50
2013,03,30,16,04,17.40
2013,03,30,16,05,17.30
2013,03,30,16,06,17.30
2013,03,30,16,07,17.30
2013,03,30,16,08,17.30
2013,03,30,16,09,17.30
2013,03,30,16,10,17.20
2013,03,30,16,11,17.20
2013,03,30,16,12,17.20
2013,03,30,16,13,17.30
2013,03,30,16,14,17.30
2013,03,30,16,15,17.30
2013,03,30,16,16,17.30
2013,03,30,16,17,17.30
2013,03,30,16,18,17.30
2013,03,30,16,19,17.30
2013,03,30,16,20,17.30
2013,03,30,16,21,17.30
2013,03,30,16,22,17.30
2013,03,30,16,23,17.30
2013,03,30,16,24,17.30
2013,03,30,16,25,17.30
2013,03,30,16,26,17.30
2013,03,30,16,27,17.30
2013,03,30,16,28,17.30
2013,03,30,16,29,17.30
2013,03,30,16,30,17.30
2013,03,30,16,31,17.30
2013,03,30,16,32,17.30
2013,03,30,16,33,17.30
2013,03,30,16,34,17.30
2013,03,30,16,35,17.30
2013,03,30,16,36,17.40
2013,03,30,16,37,17.40
2013,03,30,16,38,17.50
2013,03,30,16,39,17.60
2013,03,30,16,40,17.70
2013,03,30,16,41,17.70
2013,03,30,16,42,17.70
2013,03,30,16,43,17.70
2013,03,30,16,44,17.60
2013,03,30,16,45,17.60
2013,03,30,16,46,17.60
2013,03,30,16,47,17.50
2013,03,30,16,48,17.50
2013,03,30,16,49,17.40
2013,03,30,16,50,17.40
2013,03,30,16,51,17.40
2013,03,30,16,52,17.40
2013,03,30,16,53,17.40
2013,03,30,16,54,17.40
2013,03,30,16,55,17.40
2013,03,30,16,56,17.40
2013,03,30,16,57,17.30
2013,03,30,16,58,17.30
2013,03,30,16,59,17.30
2013,03,30,17,00,17.30
2013,03,30,17,01,17.20
2013,03,30,17,02,17.20
2013,03,30,17,03,17.20
2013,03,30,17,04,17.20
2013,03,30,17,05,17.20
2013,03,30,17,06,17.10
2013,03,30,17,07,17.10
2013,03,30,17,08,17.10
2013,03,30,17,09,17.10
2013,03,30,17,10,17.10
2013,03,30,17,11,17.10
2013,03,30,17,12,17.10
2013,03,30,17,13,17.20
2013,03,30,17,14,17.20
2013,03,30,17,15,17.20
2013,03,30,17,16,17.10
2013,03,30,17,17,17.10
2013,03,30,17,18,17.10
2013,03,30,17,19,17.10
2013,03,30,17,20,17.10
2013,03,30,17,21,17.10
2013,03,30,17,22,17.10
2013,03,30,17,23,17.10
2013,03,30,17,24,17.10
2013,03,30,17,25,17.10
2013,03,30,17,26,17.10
2013,03,30,17,27,17.10
2013,03,30,17,28,17.10
2013,03,30,17,29,17.10
2013,03,30,17,30,17.10
2013,03,30,17,31,17.10
2013,03,30,17,32,17.10
2013,03,30,17,33,17.10
2013,03,30,17,34,17.10
2013,03,30,17,35,17.10
2013,03,30,17,36,17.10
2013,03,30,17,37,17.10
2013,03,30,17,38,17.10
2013,03,30,17,39,17.10
2013,03,30,17,40,17.10
2013,03,30,17,41,17.10
2013,03,30,17,42,17.10
2013,03,30,17,43,17.20
2013,03,30,17,44,17.20
2013,03,30,17,45,17.20
2013,03,30,17,46,17.20
2013,03,30,17,47,17.20
2013,03,30,17,48,17.10
2013,03,30,17,49,17.10